Tracking 29892 objects as of 21-Nov-2024
HD Live streaming from Space Station
objects crossing your sky now

STARLINK-2697

Track STARLINK-2697 now!
10-day predictions
STARLINK-2697 is classified as:


NORAD ID: 48474
Int'l Code: 2021-040AY
Perigee: 553.2 km
Apogee: 555.4 km
Inclination: 53.1 °
Period: 95.6 minutes
Semi major axis: 6925 km
RCS: Unknown
Launch date: May 9, 2021
Source: United States (US)
Launch site: AIR FORCE EASTERN TEST RANGE (AFETR)
Your satellite tracking list
Your tracking list is empty




NASA's NSSDC Master Catalog

Two Line Element Set (TLE):
1 48474U 21040AY  24325.51392132  .00002726  00000-0  20177-3 0  9993
2 48474  53.0523 160.2749 0001552  93.1684 266.9483 15.06414865196295
Source of the keplerian elements: AFSPC